AEE123 EGPH-EGKK

Flight info

Callsign AEE123
Flight time 1h 16m
Altitude 33000
Route GOSAM P600 FENIK L612 NAVSO DCT KEPAD L151 DISIT
Aircraft A20N/M-SDE2E3FGHIRWXY/LB1

Departure

Time 2026-04-26 08:15
Airport Edinburgh Airport (EGPH)

Arrival

Time 2026-04-26 09:31
Airport London Gatwick Airport (EGKK)
Time Latitude Longitude Altitude Speed Heading
2026-04-26 07:50 55.94713 -3.36663 106 ft 0 kts 104°
2026-04-26 08:03 55.94713 -3.36664 106 ft 1 kts 104°
2026-04-26 08:03 55.94715 -3.36677 106 ft 1 kts 104°
2026-04-26 08:04 55.94717 -3.36690 106 ft 1 kts 104°
2026-04-26 08:04 55.94719 -3.36722 107 ft 4 kts 69°
2026-04-26 08:04 55.94709 -3.36745 103 ft 0 kts 14°
2026-04-26 08:06 55.94710 -3.36745 103 ft 0 kts 14°
2026-04-26 08:07 55.94730 -3.36722 105 ft 0 kts 43°
2026-04-26 08:07 55.94744 -3.36700 106 ft 9 kts 36°
2026-04-26 08:08 55.94802 -3.36712 107 ft 11 kts 322°
2026-04-26 08:08 55.94855 -3.36768 106 ft 6 kts 355°
2026-04-26 08:08 55.94884 -3.36792 109 ft 8 kts 325°
2026-04-26 08:08 55.94957 -3.36784 111 ft 10 kts 48°
2026-04-26 08:09 55.95005 -3.36657 111 ft 16 kts 61°
2026-04-26 08:09 55.95047 -3.36531 111 ft 20 kts 58°
2026-04-26 08:09 55.95130 -3.36288 109 ft 27 kts 58°
2026-04-26 08:09 55.95224 -3.36013 105 ft 28 kts 59°
2026-04-26 08:10 55.95310 -3.35749 107 ft 22 kts 61°
2026-04-26 08:10 55.95378 -3.35543 109 ft 17 kts 58°
2026-04-26 08:10 55.95459 -3.35407 109 ft 14 kts 345°
2026-04-26 08:10 55.95501 -3.35474 107 ft 0 kts 336°
2026-04-26 08:12 55.95510 -3.35481 107 ft 6 kts 336°
2026-04-26 08:12 55.95567 -3.35552 108 ft 10 kts 286°
2026-04-26 08:12 55.95563 -3.35573 108 ft 0 kts 241°
2026-04-26 08:14 55.95518 -3.35717 109 ft 57 kts 240°
2026-04-26 08:14 55.95112 -3.36928 122 ft 162 kts 238°
2026-04-26 08:15 55.94430 -3.38903 721 ft 205 kts 238°
2026-04-26 08:15 55.93614 -3.41259 1589 ft 233 kts 238°
2026-04-26 08:15 55.92733 -3.43805 2610 ft 253 kts 238°
2026-04-26 08:15 55.91796 -3.46523 2996 ft 259 kts 238°
2026-04-26 08:16 55.90888 -3.49306 3324 ft 261 kts 245°
2026-04-26 08:16 55.90292 -3.52330 3611 ft 261 kts 257°
2026-04-26 08:16 55.89983 -3.55530 3873 ft 263 kts 261°
2026-04-26 08:16 55.89688 -3.58721 4099 ft 264 kts 261°
2026-04-26 08:17 55.89375 -3.61949 4302 ft 264 kts 260°
2026-04-26 08:17 55.89054 -3.65174 4479 ft 265 kts 260°
2026-04-26 08:17 55.88731 -3.68419 4668 ft 268 kts 260°
2026-04-26 08:17 55.88402 -3.71712 5333 ft 271 kts 260°
2026-04-26 08:18 55.88070 -3.75032 6807 ft 269 kts 260°
2026-04-26 08:18 55.87741 -3.78297 8242 ft 274 kts 260°
2026-04-26 08:18 55.87398 -3.81692 9575 ft 281 kts 260°
2026-04-26 08:18 55.87045 -3.85198 10470 ft 297 kts 260°
2026-04-26 08:19 55.86661 -3.89007 11066 ft 327 kts 260°
2026-04-26 08:19 55.86248 -3.93090 11446 ft 339 kts 260°
2026-04-26 08:19 55.85829 -3.97225 11702 ft 341 kts 260°
2026-04-26 08:19 55.85409 -4.01346 11871 ft 342 kts 259°
2026-04-26 08:20 55.84983 -4.05518 12000 ft 343 kts 259°
2026-04-26 08:20 55.84540 -4.09738 12494 ft 348 kts 257°
2026-04-26 08:20 55.83560 -4.13665 13744 ft 349 kts 235°
2026-04-26 08:20 55.81875 -4.16800 14885 ft 355 kts 219°
2026-04-26 08:21 55.79864 -4.19347 15903 ft 362 kts 213°
2026-04-26 08:21 55.77719 -4.21766 16896 ft 368 kts 212°
2026-04-26 08:21 55.75549 -4.24256 17498 ft 372 kts 212°
2026-04-26 08:21 55.73200 -4.26131 17803 ft 375 kts 195°
2026-04-26 08:22 55.70643 -4.26654 17957 ft 377 kts 177°
2026-04-26 08:22 55.68078 -4.25705 18071 ft 380 kts 158°
2026-04-26 08:22 55.65724 -4.23481 18757 ft 385 kts 150°
2026-04-26 08:22 55.63384 -4.21140 19835 ft 386 kts 151°
2026-04-26 08:23 55.61010 -4.18810 20723 ft 392 kts 151°
2026-04-26 08:23 55.58637 -4.16499 21568 ft 398 kts 151°
2026-04-26 08:23 55.56186 -4.14120 22403 ft 403 kts 151°
2026-04-26 08:23 55.53714 -4.11718 23202 ft 408 kts 151°
2026-04-26 08:24 55.51211 -4.09287 24005 ft 413 kts 151°
2026-04-26 08:24 55.48678 -4.06827 24749 ft 418 kts 151°
2026-04-26 08:24 55.46105 -4.04329 25442 ft 423 kts 151°
2026-04-26 08:24 55.43511 -4.01814 26149 ft 428 kts 151°
2026-04-26 08:25 55.40890 -3.99277 26708 ft 433 kts 151°
2026-04-26 08:25 55.38251 -3.96723 26927 ft 433 kts 151°
2026-04-26 08:25 55.35608 -3.94171 26997 ft 433 kts 151°
2026-04-26 08:25 55.32996 -3.91652 27001 ft 434 kts 151°
2026-04-26 08:26 55.30343 -3.89097 27000 ft 435 kts 151°
2026-04-26 08:26 55.27693 -3.86550 27000 ft 433 kts 151°
2026-04-26 08:26 55.25042 -3.84004 27000 ft 433 kts 152°
2026-04-26 08:26 55.22357 -3.81583 27000 ft 433 kts 156°
2026-04-26 08:27 55.19545 -3.79698 26999 ft 433 kts 162°
2026-04-26 08:27 55.16673 -3.78043 27000 ft 434 kts 162°
2026-04-26 08:27 55.13817 -3.76391 27000 ft 432 kts 162°
2026-04-26 08:27 55.10958 -3.74727 27000 ft 433 kts 162°
2026-04-26 08:28 55.08102 -3.73059 27000 ft 433 kts 162°
2026-04-26 08:28 55.05285 -3.71413 26999 ft 432 kts 162°
2026-04-26 08:28 55.02431 -3.69749 26999 ft 433 kts 162°
2026-04-26 08:28 54.99574 -3.68085 27000 ft 433 kts 162°
2026-04-26 08:29 54.96705 -3.66418 26999 ft 433 kts 162°
2026-04-26 08:29 54.93841 -3.64757 26999 ft 434 kts 162°
2026-04-26 08:29 54.90962 -3.63090 27000 ft 434 kts 162°
2026-04-26 08:29 54.88139 -3.61458 27000 ft 432 kts 162°
2026-04-26 08:30 54.85280 -3.59807 27000 ft 432 kts 162°
2026-04-26 08:30 54.82426 -3.58162 26999 ft 432 kts 162°
2026-04-26 08:30 54.79557 -3.56511 27189 ft 436 kts 162°
2026-04-26 08:30 54.76667 -3.54850 27757 ft 437 kts 162°
2026-04-26 08:31 54.73794 -3.53202 28280 ft 440 kts 162°
2026-04-26 08:31 54.70871 -3.51527 28827 ft 444 kts 162°
2026-04-26 08:31 54.67927 -3.49843 29323 ft 447 kts 162°
2026-04-26 08:31 54.64957 -3.48147 29773 ft 451 kts 162°
2026-04-26 08:32 54.61968 -3.46442 29960 ft 453 kts 162°
2026-04-26 08:32 54.58973 -3.44736 30001 ft 454 kts 162°
2026-04-26 08:32 54.52966 -3.41331 30000 ft 454 kts 162°
2026-04-26 08:33 54.46983 -3.37961 30001 ft 455 kts 162°
2026-04-26 08:33 54.40977 -3.34566 30000 ft 453 kts 162°
2026-04-26 08:34 54.34986 -3.31186 29999 ft 454 kts 162°
2026-04-26 08:34 54.28999 -3.27820 29999 ft 454 kts 162°
2026-04-26 08:35 54.23002 -3.24463 30000 ft 452 kts 162°
2026-04-26 08:35 54.17009 -3.21119 30001 ft 453 kts 162°
2026-04-26 08:36 54.11018 -3.17789 30000 ft 453 kts 162°
2026-04-26 08:36 54.05029 -3.14469 29999 ft 452 kts 162°
2026-04-26 08:37 53.99060 -3.11170 30001 ft 452 kts 162°
2026-04-26 08:37 53.93060 -3.07864 30001 ft 452 kts 162°
2026-04-26 08:38 53.87058 -3.04567 30000 ft 452 kts 162°
2026-04-26 08:38 53.81102 -3.01306 29999 ft 453 kts 162°
2026-04-26 08:39 53.75083 -2.98020 30000 ft 452 kts 162°
2026-04-26 08:39 53.69128 -2.94778 30001 ft 452 kts 162°
2026-04-26 08:40 53.63107 -2.91510 29999 ft 452 kts 162°
2026-04-26 08:40 53.57147 -2.88285 30000 ft 453 kts 162°
2026-04-26 08:41 53.51130 -2.85039 30001 ft 453 kts 162°
2026-04-26 08:41 53.45153 -2.81824 30000 ft 453 kts 162°
2026-04-26 08:42 53.39134 -2.78597 30000 ft 453 kts 162°
2026-04-26 08:42 53.33131 -2.75387 30000 ft 452 kts 162°
2026-04-26 08:43 53.27112 -2.72179 29999 ft 453 kts 162°
2026-04-26 08:43 53.21125 -2.68996 30000 ft 453 kts 162°
2026-04-26 08:44 53.15108 -2.65807 30000 ft 453 kts 162°
2026-04-26 08:44 53.09101 -2.62633 30000 ft 453 kts 162°
2026-04-26 08:45 53.03107 -2.59321 30000 ft 453 kts 162°
2026-04-26 08:45 52.97137 -2.56268 29560 ft 445 kts 163°
2026-04-26 08:46 52.94193 -2.54764 28650 ft 441 kts 163°
2026-04-26 08:46 52.91285 -2.53263 27673 ft 435 kts 163°
2026-04-26 08:46 52.88413 -2.51770 26673 ft 428 kts 162°
2026-04-26 08:46 52.85589 -2.50297 25684 ft 422 kts 162°
2026-04-26 08:47 52.82853 -2.48824 24714 ft 416 kts 160°
2026-04-26 08:47 52.80233 -2.46895 23736 ft 410 kts 152°
2026-04-26 08:47 52.77789 -2.44436 22737 ft 403 kts 146°
2026-04-26 08:47 52.75513 -2.41885 21783 ft 398 kts 146°
2026-04-26 08:48 52.73232 -2.39344 20845 ft 392 kts 146°
2026-04-26 08:48 52.70990 -2.36861 20315 ft 387 kts 146°
2026-04-26 08:48 52.68738 -2.34379 20090 ft 390 kts 146°
2026-04-26 08:48 52.66479 -2.31897 20005 ft 389 kts 146°
2026-04-26 08:49 52.64221 -2.29419 20000 ft 389 kts 146°
2026-04-26 08:49 52.61967 -2.26950 19949 ft 387 kts 146°
2026-04-26 08:49 52.59738 -2.24509 19466 ft 383 kts 146°
2026-04-26 08:49 52.57552 -2.22119 18736 ft 379 kts 147°
2026-04-26 08:50 52.55371 -2.19737 17858 ft 374 kts 147°
2026-04-26 08:50 52.53214 -2.17384 16921 ft 370 kts 147°
2026-04-26 08:50 52.51083 -2.15062 16000 ft 365 kts 147°
2026-04-26 08:50 52.48975 -2.12767 15084 ft 360 kts 147°
2026-04-26 08:51 52.44845 -2.08278 13281 ft 350 kts 147°
2026-04-26 08:51 52.42847 -2.06111 12464 ft 344 kts 147°
2026-04-26 08:51 52.40870 -2.03967 11542 ft 340 kts 147°
2026-04-26 08:52 52.38902 -2.01837 10687 ft 337 kts 147°
2026-04-26 08:52 52.36960 -1.99737 10252 ft 337 kts 147°
2026-04-26 08:52 52.35003 -1.97623 10066 ft 336 kts 147°
2026-04-26 08:52 52.33079 -1.95546 9965 ft 325 kts 147°
2026-04-26 08:53 52.31236 -1.93558 9832 ft 309 kts 147°
2026-04-26 08:53 52.29478 -1.91665 9715 ft 296 kts 147°
2026-04-26 08:53 52.27789 -1.89847 9476 ft 287 kts 147°
2026-04-26 08:53 52.26127 -1.88062 9041 ft 285 kts 147°
2026-04-26 08:54 52.24479 -1.86296 8426 ft 282 kts 147°
2026-04-26 08:54 52.22844 -1.84545 7809 ft 280 kts 147°
2026-04-26 08:54 52.21218 -1.82807 7282 ft 276 kts 147°
2026-04-26 08:54 52.19630 -1.81106 7070 ft 279 kts 147°
2026-04-26 08:55 52.18009 -1.79369 6999 ft 277 kts 147°
2026-04-26 08:55 52.16924 -1.78208 7000 ft 277 kts 147°
2026-04-26 08:55 52.14769 -1.75907 7001 ft 278 kts 147°
2026-04-26 08:55 52.13160 -1.74187 6834 ft 275 kts 147°
2026-04-26 08:56 52.12097 -1.73052 6722 ft 275 kts 147°
2026-04-26 08:56 52.10487 -1.71337 6678 ft 275 kts 147°
2026-04-26 08:56 52.08891 -1.69637 6672 ft 276 kts 147°
2026-04-26 08:56 52.07284 -1.67926 6575 ft 274 kts 147°
2026-04-26 08:57 52.05686 -1.66231 6257 ft 274 kts 147°
2026-04-26 08:57 52.04116 -1.64564 5874 ft 272 kts 147°
2026-04-26 08:57 52.02545 -1.62896 5714 ft 273 kts 147°
2026-04-26 08:57 52.00951 -1.61205 5680 ft 273 kts 147°
2026-04-26 08:58 51.99364 -1.59527 5677 ft 272 kts 147°
2026-04-26 08:58 51.97772 -1.57844 5680 ft 273 kts 147°
2026-04-26 08:58 51.96149 -1.56255 5671 ft 272 kts 158°
2026-04-26 08:58 51.94361 -1.55259 5677 ft 273 kts 154°
2026-04-26 08:59 51.92781 -1.53567 5678 ft 273 kts 142°
2026-04-26 08:59 51.91327 -1.51644 5672 ft 263 kts 141°
2026-04-26 08:59 51.89896 -1.49809 5674 ft 263 kts 143°
2026-04-26 08:59 51.88430 -1.48077 5674 ft 260 kts 145°
2026-04-26 09:00 51.86925 -1.46411 5654 ft 261 kts 146°
2026-04-26 09:00 51.85413 -1.44797 5438 ft 259 kts 147°
2026-04-26 09:00 51.83902 -1.43209 5095 ft 259 kts 147°
2026-04-26 09:00 51.82414 -1.41654 4787 ft 256 kts 147°
2026-04-26 09:01 51.80908 -1.40079 4680 ft 259 kts 147°
2026-04-26 09:01 51.79405 -1.38508 4681 ft 258 kts 147°
2026-04-26 09:01 51.77891 -1.36928 4681 ft 258 kts 147°
2026-04-26 09:01 51.76384 -1.35351 4674 ft 258 kts 147°
2026-04-26 09:02 51.74880 -1.33788 4550 ft 256 kts 147°
2026-04-26 09:02 51.73384 -1.32225 4230 ft 255 kts 147°
2026-04-26 09:02 51.71891 -1.30665 3875 ft 255 kts 147°
2026-04-26 09:02 51.70419 -1.29123 3712 ft 254 kts 147°
2026-04-26 09:03 51.68940 -1.27575 3674 ft 255 kts 147°
2026-04-26 09:03 51.67453 -1.26031 3677 ft 254 kts 147°
2026-04-26 09:03 51.65960 -1.24475 3683 ft 255 kts 147°
2026-04-26 09:03 51.64471 -1.22929 3677 ft 254 kts 147°
2026-04-26 09:04 51.62982 -1.21385 3680 ft 255 kts 147°
2026-04-26 09:04 51.61525 -1.19876 3678 ft 254 kts 147°
2026-04-26 09:04 51.60035 -1.18334 3674 ft 254 kts 147°
2026-04-26 09:04 51.58548 -1.16794 3681 ft 254 kts 147°
2026-04-26 09:05 51.57057 -1.15252 3674 ft 254 kts 147°
2026-04-26 09:05 51.55567 -1.13706 3673 ft 254 kts 147°
2026-04-26 09:05 51.54077 -1.12169 3680 ft 254 kts 148°
2026-04-26 09:05 51.52588 -1.10633 3678 ft 254 kts 147°
2026-04-26 09:06 51.51117 -1.09112 3677 ft 255 kts 148°
2026-04-26 09:06 51.49627 -1.07582 3677 ft 254 kts 148°
2026-04-26 09:06 51.48129 -1.06052 3677 ft 255 kts 147°
2026-04-26 09:06 51.46640 -1.04513 3677 ft 254 kts 147°
2026-04-26 09:07 51.45153 -1.02972 3678 ft 254 kts 147°
2026-04-26 09:07 51.43666 -1.01441 3673 ft 254 kts 147°
2026-04-26 09:07 51.42174 -0.99911 3680 ft 255 kts 148°
2026-04-26 09:07 51.40685 -0.98381 3677 ft 254 kts 148°
2026-04-26 09:08 51.39194 -0.96845 3674 ft 254 kts 147°
2026-04-26 09:08 51.37730 -0.95342 3604 ft 252 kts 148°
2026-04-26 09:08 51.36248 -0.93826 3330 ft 251 kts 148°
2026-04-26 09:08 51.34772 -0.92315 2972 ft 251 kts 148°
2026-04-26 09:09 51.33311 -0.90808 2733 ft 247 kts 147°
2026-04-26 09:09 51.31861 -0.89317 2680 ft 252 kts 148°
2026-04-26 09:09 51.30370 -0.87796 2680 ft 250 kts 148°
2026-04-26 09:09 51.28903 -0.86309 2675 ft 250 kts 148°
2026-04-26 09:10 51.27445 -0.84838 2680 ft 251 kts 148°
2026-04-26 09:10 51.25962 -0.83335 2680 ft 252 kts 148°
2026-04-26 09:10 51.24489 -0.81838 2675 ft 250 kts 148°
2026-04-26 09:10 51.23017 -0.80341 2685 ft 252 kts 148°
2026-04-26 09:11 51.21544 -0.78844 2679 ft 250 kts 148°
2026-04-26 09:11 51.20092 -0.77364 2675 ft 251 kts 148°
2026-04-26 09:11 51.18612 -0.75859 2684 ft 253 kts 148°
2026-04-26 09:11 51.17133 -0.74364 2678 ft 251 kts 148°
2026-04-26 09:12 51.15653 -0.72873 2676 ft 250 kts 148°
2026-04-26 09:12 51.14177 -0.71376 2686 ft 252 kts 148°
2026-04-26 09:12 51.12696 -0.69863 2672 ft 252 kts 148°
2026-04-26 09:12 51.11242 -0.68380 2676 ft 250 kts 148°
2026-04-26 09:13 51.09767 -0.66894 2673 ft 251 kts 148°
2026-04-26 09:13 51.08283 -0.65410 2677 ft 251 kts 148°
2026-04-26 09:13 51.06805 -0.63912 2680 ft 251 kts 148°
2026-04-26 09:13 51.05443 -0.62195 2677 ft 252 kts 131°
2026-04-26 09:14 51.04529 -0.59848 2680 ft 251 kts 115°
2026-04-26 09:14 51.03783 -0.57371 2680 ft 251 kts 116°
2026-04-26 09:14 51.03018 -0.54879 2680 ft 251 kts 116°
2026-04-26 09:14 51.02240 -0.52392 2673 ft 251 kts 117°
2026-04-26 09:15 51.01462 -0.49910 2678 ft 251 kts 116°
2026-04-26 09:15 51.00683 -0.47421 2681 ft 252 kts 116°
2026-04-26 09:15 50.99903 -0.44931 2677 ft 251 kts 117°
2026-04-26 09:15 50.99117 -0.42461 2675 ft 251 kts 117°
2026-04-26 09:16 50.98332 -0.39981 2682 ft 252 kts 117°
2026-04-26 09:16 50.97546 -0.37503 2673 ft 251 kts 117°
2026-04-26 09:16 50.96763 -0.35018 2677 ft 252 kts 117°
2026-04-26 09:16 50.95979 -0.32534 2673 ft 251 kts 116°
2026-04-26 09:17 50.95209 -0.30084 2678 ft 252 kts 117°
2026-04-26 09:17 50.94423 -0.27611 2676 ft 251 kts 117°
2026-04-26 09:17 50.93638 -0.25136 2684 ft 252 kts 117°
2026-04-26 09:17 50.92852 -0.22640 2670 ft 251 kts 116°
2026-04-26 09:18 50.92087 -0.20214 2676 ft 241 kts 117°
2026-04-26 09:18 50.91335 -0.17846 2679 ft 242 kts 117°
2026-04-26 09:18 50.90576 -0.15465 2674 ft 241 kts 117°
2026-04-26 09:18 50.89826 -0.13120 2679 ft 242 kts 117°
2026-04-26 09:19 50.89066 -0.10742 2679 ft 242 kts 117°
2026-04-26 09:19 50.88321 -0.08351 2678 ft 241 kts 111°
2026-04-26 09:19 50.88125 -0.05747 2678 ft 241 kts 80°
2026-04-26 09:19 50.88799 -0.03346 2680 ft 241 kts 49°
2026-04-26 09:20 50.90154 -0.01847 2683 ft 240 kts 18°
2026-04-26 09:20 50.91778 -0.01681 2677 ft 239 kts 346°
2026-04-26 09:20 50.93306 -0.02664 2679 ft 236 kts 331°
2026-04-26 09:20 50.94647 -0.03993 2675 ft 219 kts 321°
2026-04-26 09:21 50.95726 -0.05654 2438 ft 215 kts 307°
2026-04-26 09:21 50.96506 -0.07676 2127 ft 215 kts 294°
2026-04-26 09:21 50.97042 -0.09881 1828 ft 214 kts 287°
2026-04-26 09:21 50.97437 -0.12116 1686 ft 205 kts 284°
2026-04-26 09:22 50.97761 -0.14270 1680 ft 207 kts 282°
2026-04-26 09:22 50.98080 -0.16468 1672 ft 202 kts 283°
2026-04-26 09:22 50.98407 -0.18662 1675 ft 203 kts 283°
2026-04-26 09:22 50.98748 -0.20841 1683 ft 203 kts 284°
2026-04-26 09:23 50.99100 -0.23023 1680 ft 204 kts 284°
2026-04-26 09:23 50.99456 -0.25198 1680 ft 203 kts 284°
2026-04-26 09:23 50.99816 -0.27373 1675 ft 203 kts 284°
2026-04-26 09:23 51.00169 -0.29527 1677 ft 204 kts 284°
2026-04-26 09:24 51.00517 -0.31719 1686 ft 204 kts 283°
2026-04-26 09:24 51.00862 -0.33901 1687 ft 204 kts 284°
2026-04-26 09:24 51.01209 -0.36087 1680 ft 203 kts 284°
2026-04-26 09:24 51.01556 -0.38265 1684 ft 203 kts 284°
2026-04-26 09:25 51.01901 -0.40426 1680 ft 204 kts 284°
2026-04-26 09:25 51.02245 -0.42584 1687 ft 201 kts 284°
2026-04-26 09:25 51.02596 -0.44759 1681 ft 203 kts 284°
2026-04-26 09:25 51.02941 -0.46937 1683 ft 203 kts 283°
2026-04-26 09:26 51.03279 -0.49101 1677 ft 202 kts 284°
2026-04-26 09:26 51.03699 -0.51241 1673 ft 202 kts 299°
2026-04-26 09:26 51.04722 -0.52738 1682 ft 205 kts 335°
2026-04-26 09:26 51.06072 -0.52969 1675 ft 190 kts 12°
2026-04-26 09:27 51.07270 -0.52166 1469 ft 186 kts 28°
2026-04-26 09:27 51.08378 -0.51105 1043 ft 185 kts 32°
2026-04-26 09:27 51.09406 -0.49940 750 ft 187 kts 41°
2026-04-26 09:27 51.10259 -0.48384 716 ft 187 kts 56°
2026-04-26 09:28 51.10855 -0.46532 678 ft 188 kts 68°
2026-04-26 09:28 51.11258 -0.44564 677 ft 180 kts 75°
2026-04-26 09:28 51.11554 -0.42654 679 ft 179 kts 77°
2026-04-26 09:28 51.11822 -0.40720 677 ft 178 kts 78°
2026-04-26 09:29 51.12082 -0.38784 680 ft 179 kts 78°
2026-04-26 09:29 51.12349 -0.36817 681 ft 184 kts 78°
2026-04-26 09:29 51.12623 -0.34831 678 ft 183 kts 77°
2026-04-26 09:29 51.12901 -0.32850 675 ft 184 kts 77°
2026-04-26 09:30 51.13177 -0.30886 679 ft 184 kts 77°
2026-04-26 09:30 51.13453 -0.28898 678 ft 183 kts 77°
2026-04-26 09:30 51.13727 -0.26911 679 ft 184 kts 77°
2026-04-26 09:30 51.13993 -0.24916 668 ft 184 kts 78°
2026-04-26 09:31 51.14228 -0.22921 570 ft 182 kts 77°
2026-04-26 09:31 51.14548 -0.20951 285 ft 182 kts 76°
2026-04-26 09:31 51.14788 -0.19155 215 ft 138 kts 78°
2026-04-26 09:31 51.14915 -0.18412 205 ft 31 kts 76°
2026-04-26 09:32 51.14954 -0.17884 207 ft 12 kts 66°
2026-04-26 09:32 51.15023 -0.17850 212 ft 19 kts 26°
2026-04-26 09:32 51.15035 -0.17832 209 ft 0 kts 60°
2026-04-26 09:34 51.15056 -0.17793 217 ft 9 kts 36°
2026-04-26 09:34 51.15091 -0.17763 209 ft 10 kts 22°
2026-04-26 09:35 51.15188 -0.17773 207 ft 12 kts 357°
2026-04-26 09:35 51.15260 -0.17721 206 ft 11 kts 82°
2026-04-26 09:35 51.15271 -0.17577 204 ft 0 kts 74°
2026-04-26 09:35 51.15282 -0.17516 204 ft 13 kts 73°
2026-04-26 09:36 51.15317 -0.17381 207 ft 14 kts 14°
2026-04-26 09:36 51.15423 -0.17387 212 ft 16 kts 357°
2026-04-26 09:36 51.15523 -0.17428 215 ft 12 kts 355°
2026-04-26 09:36 51.15537 -0.17431 209 ft 0 kts 351°
2026-04-26 09:37 51.15540 -0.17431 208 ft 2 kts
2026-04-26 09:37 51.15569 -0.17405 207 ft 8 kts 40°
2026-04-26 09:37 51.15596 -0.17299 207 ft 13 kts 77°
2026-04-26 09:38 51.15618 -0.17153 206 ft 2 kts 78°
2026-04-26 09:38 51.15607 -0.17120 207 ft 7 kts 125°
2026-04-26 09:38 51.15559 -0.17088 210 ft 5 kts 163°
2026-04-26 09:38 51.15558 -0.17088 210 ft 0 kts 166°